Simultaneous Nadir Overpasses (SNOs) Predictions

Prediction of SNOs between NOAA-20 and LANDSAT-8 Satellite Orbit:

Table of predicted SNOs for the next 14.0 days since TLE Epoch: 1/20/2024
Index Date (NOAA-20) Time (NOAA-20) Lat,Lon (NOAA-20) SZA (NOAA-20 ) Date (LANDSAT-8) Time (LANDSAT-8) Lat,Lon (LANDSAT-8) SZA (LANDSAT-8 ) Distance(km) Time Diff (sec)
1 01/22/2024 06:32:35 70.15, 78.12 89.94 01/22/2024 06:33:43 70.16, 78.09 89.94 1.73 68
2 01/22/2024 07:23:17 -70.07,-114.44 90.16 01/22/2024 07:23:13 -70.05,-114.44 90.18 1.96 4
3 01/22/2024 08:13:56 69.68, 53.46 89.43 01/22/2024 08:12:44 69.72, 52.75 89.51 27.80 72
4 01/24/2024 22:49:32 70.14,-166.10 89.31 01/24/2024 22:50:10 70.14,-166.06 89.30 1.40 38
5 01/24/2024 23:40:13 -70.00, 1.43 90.85 01/24/2024 23:39:40 -70.03, 1.42 90.82 3.04 33
6 01/27/2024 14:15:53 -70.68, 141.51 90.78 01/27/2024 14:17:03 -70.57, 142.82 90.95 49.65 70
7 01/27/2024 15:06:28 70.08, -50.25 88.59 01/27/2024 15:06:37 70.08, -50.26 88.58 0.75 9
8 01/27/2024 15:57:10 -70.00, 117.20 91.52 01/27/2024 15:56:07 -69.97, 117.22 91.54 3.14 63
9 01/30/2024 06:32:39 -70.16,-101.90 92.04 01/30/2024 06:33:35 -70.15,-101.91 92.05 0.75 56
10 01/30/2024 07:23:23 70.04, 65.59 87.83 01/30/2024 07:23:02 70.04, 65.58 87.84 0.46 21
11 01/30/2024 08:13:52 -69.26,-125.96 92.99 01/30/2024 08:12:43 -69.32,-127.76 92.85 71.35 69
12 02/01/2024 21:59:10 71.10,-154.99 88.24 02/01/2024 22:00:16 71.00,-152.37 88.03 95.10 66
13 02/01/2024 22:49:35 -70.12, 13.92 92.82 02/01/2024 22:50:00 -70.13, 13.96 92.81 1.86 25
14 02/01/2024 23:40:19 70.00,-178.59 87.05 02/01/2024 23:39:27 70.01,-178.56 87.07 1.78 52



Historial Predications of SNOs between NOAA-20 and LANDSAT-8
